Location: El Carrer d�Abaix
(41.5797°N, 2.1791°E)
Time: 21:51:03
(UTC+00:00)

Cosmos 2082 Rocket - Pass Details

Date: 05 October 2020
Orbit: 834 x 853 km, 71.0° (Epoch: 27 October)

Event Time Altitude Azimuth Distance (km) Brightness Sun altitude
Rises 18:17:34 0° 339° (NNW) 3,394 5.7 -10.5°
Reaches altitude 10° 18:20:03 10° 343° (NNW) 2,458 4.9 -11.0°
Maximum altitude 18:25:38 61° 63° (ENE) 949 2.2 -12.0°
Drops below altitude 10° 18:31:12 10° 144° (SE) 2,454 4.2 -13.1°
Enters shadow 18:32:58 - 147° (SSE) 3,116 4.8 -13.4°
